Regional Weather Roundup
Issued by NWS

Home | Current Version | Previous Version | Text Only | Print | Product List | Glossary On
Versions: 1 2 3 4 5 6 7 8 9 10 11 12 13 14 15 16 17 18 19 20 21 22 23 24 25 26 27 28 29 30 31 32 33 34 35 36 37 38 39 40 41 42 43 44 45 46 47 48 49 50
000
ASUS42 KKEY 280110
RWRKEY

FLORIDA REGIONAL WEATHER ROUNDUP FOR THE FLORIDA KEYS
NATIONAL WEATHER SERVICE KEY WEST FLORIDA
900 PM EDT WED MAY 27 2015

...SOUTH FLORIDA AND THE KEYS...

CITY           SKY/WX    TMP DP  RH WIND       PRES   REMARKS
FORT MYERS     CLEAR     82  65  56 E12       30.08R
SW REGIONAL AP CLEAR     81  64  56 E12       30.09R
NAPLES         PTCLDY    83  63  50 E14       30.07R
MIAMI          MOCLDY    81  65  58 E10       30.09R
WEST KENDALL   PTCLDY    79  66  64 E9        30.08S
HOMESTEAD      PTCLDY    80  69  69 E10       30.07S
MARATHON       CLEAR     82  69  64 E12G17    30.05S
BOCA CHICA NAS PTCLDY    81  69  67 E17       30.06R
KEY WEST INTL  PTCLDY    81  70  69 E15       30.06R

...INTERNATIONAL WEATHER...

CITY           SKY/WX    TMP DP  RH WIND       PRES   REMARKS
NASSAU BAHAMAS PTCLDY    77  64  65 E10       30.09R
CANCUN MEXICO  MOCLDY    82  75  78 E5        29.99R
COZUMEL MEXICO PTCLDY    79  73  83 CALM      29.98S

ADJACENT COASTAL WATERS...

STATION/POSITION TIME  SKY/WX   TEMP    WIND        PRES    WAVE
                                AIR SEA DIR/SP/G            HT/PER
                 (UTC)          (F)     (DEG/KT/KT) (MB)    (FT/S)
PULASKI SHOAL LI 0000            81      50/ 13/ 15 1017.5R
SAND KEY         0050            81      90/ 18/ 21 1017.6R
SOMBRERO KEY     0100            80      80/ 20/ 21 1018.0R
LONG KEY         0000            81 84   90/ 20/ 22 1018.3F
MOLASSES REEF    0100            80 82   80/ 17/ 19 1018.0R
FOWEY ROCKS      NOT AVBL

$$


USA.gov is the U.S. government's official web portal to all federal, state and local government web resources and services.